This is the latest recevied weather packets stored in our database for station/object M0JUI-1. If no packets are shown the sender has not sent any weather packets the latest 10 day(s).
| Time | Temp. | Humidity | Pressure | Rain* | Wind** | Luminosity | Snow |
|---|---|---|---|---|---|---|---|
| 1778154867 | 13.33° C | 99% | 1015.9 hPa | 0 mm | - | 441 W/m² | - |
| 1778154567 | 13.33° C | 99% | 1015.9 hPa | 0 mm | - | 393 W/m² | - |
| 1778154268 | 13.33° C | 99% | 1016.1 hPa | 0 mm | - | 384 W/m² | - |
| 1778153967 | 12.78° C | 99% | 1016.1 hPa | 0 mm | - | 386 W/m² | - |
| 1778153667 | 12.78° C | 99% | 1016 hPa | 0 mm | - | 362 W/m² | - |
| 1778153368 | 12.78° C | 99% | 1016.1 hPa | 0 mm | - | 359 W/m² | - |
| 1778153067 | 12.78° C | 99% | 1016.2 hPa | 0 mm | - | 344 W/m² | - |
| 1778152768 | 12.78° C | 1% | 1016.1 hPa | 0 mm | - | 336 W/m² | - |
| 1778152467 | 12.78° C | 1% | 1016.3 hPa | 0 mm | - | 346 W/m² | - |
| 1778152168 | 12.22° C | 1% | 1016.3 hPa | 0 mm | - | 346 W/m² | - |
| 1778151867 | 12.22° C | 4% | 1016.1 hPa | 0 mm | - | 329 W/m² | - |
| 1778151567 | 11.67° C | 7% | 1016.3 hPa | 0 mm | - | 307 W/m² | - |
| 1778151268 | 11.67° C | 7% | 1016.1 hPa | 0 mm | - | 291 W/m² | - |
| 1778150967 | 11.67° C | 11% | 1016.2 hPa | 0 mm | - | 275 W/m² | - |
| 1778150667 | 11.67° C | 12% | 1016.5 hPa | 0 mm | - | 272 W/m² | - |
| 1778150367 | 11.11° C | 12% | 1016.2 hPa | 0 mm | - | 275 W/m² | - |
| 1778150067 | 11.11° C | 14% | 1016.3 hPa | 0 mm | - | 264 W/m² | - |
| 1778149770 | 11.11° C | 13% | 1016.3 hPa | 0 mm | - | 255 W/m² | - |
| 1778149468 | 10.56° C | 14% | 1016.2 hPa | 0 mm | - | 251 W/m² | - |
| 1778149167 | 10.56° C | 16% | 1016.5 hPa | 0 mm | - | 236 W/m² | - |
| 1778148868 | 10.56° C | 17% | 1016.5 hPa | 0 mm | - | 222 W/m² | - |
| 1778148568 | 10.56° C | 18% | 1016.4 hPa | 0 mm | - | 208 W/m² | - |
| 1778148267 | 10° C | 18% | 1016.2 hPa | 0 mm | - | 205 W/m² | - |
| 1778147967 | 10° C | 19% | 1016.4 hPa | 0 mm | - | 195 W/m² | - |
| 1778147668 | 9.44° C | 18% | 1016.3 hPa | 0 mm | - | 187 W/m² | - |
* Rain latest hour (hover to see other rain measurements)
** Current wind speed in m/s (hover to see current wind gust speed)